Wetterdaten: Donnerstag, 13.08.2015
Datum Zeit Auen-Temp. Temp gefhlt Luftfeuchte Luftdruck Regen Wind Richtung Richtung Taupunkt Windben
13.08.2015 00:00 16,2 C 16,0 C 64 % 1014,8 hPa 0,0 mm 0,0 km/h (0 Bft) N-NO 22 9,4 C 0,0 km/h (0 Bft)
13.08.2015 00:05 16,0 C 15,8 C 65 % 1014,8 hPa 0,0 mm 0,0 km/h (0 Bft) NO 45 9,4 C 0,0 km/h (0 Bft)
13.08.2015 00:10 16,0 C 15,8 C 65 % 1014,8 hPa 0,0 mm 0,0 km/h (0 Bft) NO 45 9,4 C 0,0 km/h (0 Bft)
13.08.2015 00:15 16,1 C 15,8 C 66 % 1014,6 hPa 0,0 mm 0,0 km/h (0 Bft) SO 135 9,7 C 0,0 km/h (0 Bft)
13.08.2015 00:20 15,9 C 15,7 C 67 % 1014,6 hPa 0,0 mm 0,0 km/h (0 Bft) W-SW 247 9,8 C 3,1 km/h (1 Bft)
13.08.2015 00:25 16,3 C 16,0 C 66 % 1014,6 hPa 0,0 mm 0,0 km/h (0 Bft) S 180 9,9 C 0,0 km/h (0 Bft)
13.08.2015 00:30 16,2 C 16,0 C 66 % 1014,6 hPa 0,0 mm 0,0 km/h (0 Bft) SW 225 9,8 C 0,0 km/h (0 Bft)
13.08.2015 00:35 16,3 C 16,0 C 66 % 1014,6 hPa 0,0 mm 0,0 km/h (0 Bft) O-SO 112 9,9 C 0,0 km/h (0 Bft)
13.08.2015 00:40 16,6 C 16,3 C 66 % 1014,6 hPa 0,0 mm 0,0 km/h (0 Bft) O-SO 112 10,2 C 0,0 km/h (0 Bft)
13.08.2015 00:45 16,3 C 16,1 C 66 % 1014,6 hPa 0,0 mm 0,0 km/h (0 Bft) O-NO 67 9,9 C 0,0 km/h (0 Bft)
13.08.2015 00:50 16,1 C 15,9 C 66 % 1014,6 hPa 0,0 mm 0,0 km/h (0 Bft) O-NO 67 9,7 C 0,0 km/h (0 Bft)
13.08.2015 00:55 16,1 C 15,9 C 66 % 1014,6 hPa 0,0 mm 0,0 km/h (0 Bft) O-NO 67 9,7 C 0,0 km/h (0 Bft)
13.08.2015 01:00 15,9 C 15,8 C 67 % 1014,6 hPa 0,0 mm 0,0 km/h (0 Bft) O-NO 67 9,8 C 0,0 km/h (0 Bft)
13.08.2015 01:05 15,9 C 15,7 C 68 % 1014,6 hPa 0,0 mm 0,0 km/h (0 Bft) O 90 10,0 C 0,0 km/h (0 Bft)
13.08.2015 01:10 15,7 C 15,5 C 67 % 1014,6 hPa 0,0 mm 0,0 km/h (0 Bft) NO 45 9,6 C 0,0 km/h (0 Bft)
13.08.2015 01:15 15,8 C 15,6 C 68 % 1014,2 hPa 0,0 mm 0,0 km/h (0 Bft) O-NO 67 9,9 C 0,0 km/h (0 Bft)
13.08.2015 01:20 15,4 C 15,3 C 68 % 1014,2 hPa 0,0 mm 0,0 km/h (0 Bft) O-NO 67 9,5 C 0,0 km/h (0 Bft)
13.08.2015 01:25 15,4 C 15,2 C 68 % 1014,2 hPa 0,0 mm 0,0 km/h (0 Bft) N-NO 22 9,5 C 0,0 km/h (0 Bft)
13.08.2015 01:30 15,3 C 15,1 C 69 % 1014,2 hPa 0,0 mm 0,0 km/h (0 Bft) NO 45 9,6 C 0,0 km/h (0 Bft)
13.08.2015 01:35 15,1 C 14,9 C 69 % 1014,2 hPa 0,0 mm 0,0 km/h (0 Bft) N-NW 337 9,5 C 0,0 km/h (0 Bft)
13.08.2015 01:40 14,9 C 14,8 C 69 % 1014,2 hPa 0,0 mm 0,0 km/h (0 Bft) O-NO 67 9,3 C 0,0 km/h (0 Bft)
13.08.2015 01:45 15,1 C 14,9 C 70 % 1014,2 hPa 0,0 mm 0,0 km/h (0 Bft) NO 45 9,7 C 0,0 km/h (0 Bft)
13.08.2015 01:50 14,9 C 14,8 C 71 % 1014,2 hPa 0,0 mm 0,0 km/h (0 Bft) N-NO 22 9,7 C 0,0 km/h (0 Bft)
13.08.2015 01:55 14,9 C 14,8 C 70 % 1014,2 hPa 0,0 mm 0,0 km/h (0 Bft) NW 315 9,5 C 0,0 km/h (0 Bft)
13.08.2015 02:00 14,9 C 14,7 C 70 % 1014,2 hPa 0,0 mm 0,0 km/h (0 Bft) NW 315 9,5 C 0,0 km/h (0 Bft)
13.08.2015 02:05 14,9 C 14,7 C 71 % 1014,2 hPa 0,0 mm 0,0 km/h (0 Bft) N 360 9,7 C 0,0 km/h (0 Bft)
13.08.2015 02:10 14,8 C 14,7 C 72 % 1014,2 hPa 0,0 mm 0,0 km/h (0 Bft) O-NO 67 9,8 C 0,0 km/h (0 Bft)
13.08.2015 02:15 14,6 C 14,5 C 71 % 1013,9 hPa 0,0 mm 0,0 km/h (0 Bft) N-NO 22 9,4 C 0,0 km/h (0 Bft)
13.08.2015 02:20 14,7 C 14,5 C 72 % 1013,9 hPa 0,0 mm 0,0 km/h (0 Bft) NO 45 9,7 C 0,0 km/h (0 Bft)
13.08.2015 02:25 14,4 C 14,3 C 72 % 1013,9 hPa 0,0 mm 0,0 km/h (0 Bft) NO 45 9,4 C 0,0 km/h (0 Bft)
13.08.2015 02:30 14,2 C 14,1 C 72 % 1013,9 hPa 0,0 mm 0,0 km/h (0 Bft) O-NO 67 9,2 C 0,0 km/h (0 Bft)
13.08.2015 02:35 14,1 C 14,0 C 72 % 1013,8 hPa 0,0 mm 0,0 km/h (0 Bft) O-NO 67 9,1 C 0,0 km/h (0 Bft)
13.08.2015 02:40 14,1 C 13,9 C 73 % 1013,8 hPa 0,0 mm 0,0 km/h (0 Bft) N-NO 22 9,3 C 0,0 km/h (0 Bft)
13.08.2015 02:45 14,1 C 13,9 C 73 % 1013,8 hPa 0,0 mm 0,0 km/h (0 Bft) NO 45 9,3 C 0,0 km/h (0 Bft)
13.08.2015 02:50 13,9 C 13,7 C 74 % 1013,8 hPa 0,0 mm 0,0 km/h (0 Bft) W-NW 292 9,3 C 0,0 km/h (0 Bft)
13.08.2015 02:55 14,2 C 13,9 C 74 % 1013,7 hPa 0,0 mm 0,0 km/h (0 Bft) O-SO 112 9,6 C 0,0 km/h (0 Bft)
13.08.2015 03:00 14,0 C 13,8 C 73 % 1013,7 hPa 0,0 mm 0,0 km/h (0 Bft) N 360 9,2 C 0,0 km/h (0 Bft)
13.08.2015 03:05 14,1 C 13,8 C 74 % 1013,7 hPa 0,0 mm 0,0 km/h (0 Bft) O-SO 112 9,5 C 0,0 km/h (0 Bft)
13.08.2015 03:10 14,3 C 14,0 C 74 % 1013,7 hPa 0,0 mm 0,0 km/h (0 Bft) W 270 9,7 C 0,0 km/h (0 Bft)
13.08.2015 03:15 14,1 C 13,9 C 74 % 1013,5 hPa 0,0 mm 0,0 km/h (0 Bft) S-SO 157 9,5 C 0,0 km/h (0 Bft)
13.08.2015 03:20 13,8 C 13,6 C 74 % 1013,5 hPa 0,0 mm 0,0 km/h (0 Bft) NO 45 9,2 C 0,0 km/h (0 Bft)
13.08.2015 03:25 13,6 C 13,4 C 75 % 1013,5 hPa 0,0 mm 0,0 km/h (0 Bft) NO 45 9,3 C 0,0 km/h (0 Bft)
13.08.2015 03:30 13,9 C 13,7 C 76 % 1013,5 hPa 0,0 mm 0,0 km/h (0 Bft) O-NO 67 9,7 C 0,0 km/h (0 Bft)
13.08.2015 03:35 13,6 C 13,5 C 75 % 1013,5 hPa 0,0 mm 0,0 km/h (0 Bft) O-NO 67 9,3 C 0,0 km/h (0 Bft)
13.08.2015 03:40 13,6 C 13,4 C 76 % 1013,5 hPa 0,0 mm 0,0 km/h (0 Bft) O-NO 67 9,4 C 0,0 km/h (0 Bft)
13.08.2015 03:45 13,4 C 13,2 C 76 % 1013,5 hPa 0,0 mm 0,0 km/h (0 Bft) NO 45 9,3 C 0,0 km/h (0 Bft)
13.08.2015 03:50 13,4 C 13,2 C 76 % 1013,5 hPa 0,0 mm 0,0 km/h (0 Bft) O-NO 67 9,3 C 0,0 km/h (0 Bft)
13.08.2015 03:55 13,3 C 13,2 C 76 % 1013,6 hPa 0,0 mm 0,0 km/h (0 Bft) O 90 9,2 C 0,0 km/h (0 Bft)
13.08.2015 04:00 13,7 C 13,4 C 77 % 1013,6 hPa 0,0 mm 0,3 km/h (0 Bft) W-SW 247 9,7 C 4,1 km/h (1 Bft)
13.08.2015 04:05 13,8 C 13,6 C 76 % 1013,6 hPa 0,0 mm 0,3 km/h (0 Bft) N 360 9,6 C 0,0 km/h (0 Bft)
13.08.2015 04:10 13,5 C 13,4 C 76 % 1013,6 hPa 0,0 mm 0,3 km/h (0 Bft) NO 45 9,4 C 0,0 km/h (0 Bft)
13.08.2015 04:15 13,3 C 13,2 C 76 % 1013,2 hPa 0,0 mm 0,0 km/h (0 Bft) O-NO 67 9,2 C 0,0 km/h (0 Bft)
13.08.2015 04:20 13,3 C 13,2 C 77 % 1013,2 hPa 0,0 mm 0,0 km/h (0 Bft) O-NO 67 9,4 C 0,0 km/h (0 Bft)
13.08.2015 04:25 13,1 C 13,0 C 77 % 1013,2 hPa 0,0 mm 0,0 km/h (0 Bft) NO 45 9,2 C 0,0 km/h (0 Bft)
13.08.2015 04:30 13,5 C 13,3 C 77 % 1013,2 hPa 0,0 mm 0,0 km/h (0 Bft) O-SO 112 9,5 C 0,0 km/h (0 Bft)
13.08.2015 04:35 13,5 C 13,3 C 77 % 1012,9 hPa 0,0 mm 0,0 km/h (0 Bft) S-SO 157 9,5 C 0,0 km/h (0 Bft)
13.08.2015 04:40 13,1 C 13,0 C 76 % 1012,9 hPa 0,0 mm 0,0 km/h (0 Bft) N-NO 22 9,0 C 0,0 km/h (0 Bft)
13.08.2015 04:45 13,2 C 13,0 C 77 % 1012,9 hPa 0,0 mm 0,0 km/h (0 Bft) NW 315 9,3 C 0,0 km/h (0 Bft)
13.08.2015 04:50 13,0 C 12,8 C 77 % 1012,9 hPa 0,0 mm 0,0 km/h (0 Bft) NW 315 9,1 C 0,0 km/h (0 Bft)
13.08.2015 04:55 12,9 C 12,7 C 78 % 1012,8 hPa 0,0 mm 0,0 km/h (0 Bft) NW 315 9,2 C 0,0 km/h (0 Bft)
13.08.2015 05:00 12,9 C 12,7 C 79 % 1012,8 hPa 0,0 mm 0,0 km/h (0 Bft) NW 315 9,3 C 0,0 km/h (0 Bft)
13.08.2015 05:05 12,9 C 12,6 C 79 % 1012,8 hPa 0,0 mm 0,0 km/h (0 Bft) NW 315 9,3 C 0,0 km/h (0 Bft)
13.08.2015 05:10 13,1 C 12,8 C 79 % 1012,8 hPa 0,0 mm 0,0 km/h (0 Bft) W-SW 247 9,5 C 0,0 km/h (0 Bft)
13.08.2015 05:15 12,9 C 12,7 C 79 % 1012,8 hPa 0,0 mm 0,0 km/h (0 Bft) N 360 9,3 C 0,0 km/h (0 Bft)
13.08.2015 05:16 12,9 C 12,7 C 79 % 1012,8 hPa 0,0 mm 0,0 km/h (0 Bft) N-NO 22 9,3 C 0,0 km/h (0 Bft)
13.08.2015 05:18 12,9 C 12,7 C 79 % 1012,8 hPa 0,0 mm 0,0 km/h (0 Bft) N-NO 22 9,3 C 0,0 km/h (0 Bft)
13.08.2015 05:20 12,9 C 12,7 C 79 % 1012,8 hPa 0,0 mm 0,0 km/h (0 Bft) N-NO 22 9,3 C 0,0 km/h (0 Bft)
13.08.2015 05:25 12,8 C 12,6 C 79 % 1012,8 hPa 0,0 mm 0,0 km/h (0 Bft) O-NO 67 9,2 C 0,0 km/h (0 Bft)
13.08.2015 05:30 12,7 C 12,5 C 80 % 1012,8 hPa 0,0 mm 0,0 km/h (0 Bft) O-NO 67 9,3 C 0,0 km/h (0 Bft)
13.08.2015 05:35 12,7 C 12,5 C 80 % 1012,8 hPa 0,0 mm 0,0 km/h (0 Bft) W-NW 292 9,3 C 0,0 km/h (0 Bft)
13.08.2015 05:40 12,9 C 12,7 C 81 % 1012,8 hPa 0,0 mm 0,0 km/h (0 Bft) NW 315 9,7 C 0,0 km/h (0 Bft)
13.08.2015 05:45 12,8 C 12,6 C 80 % 1012,8 hPa 0,0 mm 0,0 km/h (0 Bft) N-NO 22 9,4 C 0,0 km/h (0 Bft)
13.08.2015 05:50 12,8 C 12,7 C 81 % 1012,8 hPa 0,0 mm 0,0 km/h (0 Bft) N-NO 22 9,6 C 0,0 km/h (0 Bft)
13.08.2015 05:55 12,9 C 12,7 C 81 % 1012,8 hPa 0,0 mm 0,0 km/h (0 Bft) N-NO 22 9,7 C 0,0 km/h (0 Bft)
13.08.2015 06:00 12,8 C 12,6 C 82 % 1012,8 hPa 0,0 mm 0,0 km/h (0 Bft) O-NO 67 9,8 C 0,0 km/h (0 Bft)
13.08.2015 06:05 12,7 C 12,5 C 82 % 1012,8 hPa 0,0 mm 0,0 km/h (0 Bft) O-NO 67 9,7 C 0,0 km/h (0 Bft)
13.08.2015 06:10 12,5 C 12,4 C 81 % 1012,8 hPa 0,0 mm 0,0 km/h (0 Bft) NO 45 9,3 C 0,0 km/h (0 Bft)
13.08.2015 06:15 12,6 C 12,4 C 82 % 1012,7 hPa 0,0 mm 0,0 km/h (0 Bft) N-NW 337 9,6 C 0,0 km/h (0 Bft)
13.08.2015 06:20 12,6 C 12,4 C 82 % 1012,7 hPa 0,0 mm 0,0 km/h (0 Bft) N-NO 22 9,6 C 0,0 km/h (0 Bft)
13.08.2015 06:25 12,5 C 12,3 C 82 % 1012,7 hPa 0,0 mm 0,0 km/h (0 Bft) O-NO 67 9,5 C 0,0 km/h (0 Bft)
13.08.2015 06:30 12,6 C 12,4 C 82 % 1012,7 hPa 0,0 mm 0,0 km/h (0 Bft) N 360 9,6 C 0,0 km/h (0 Bft)
13.08.2015 06:35 12,6 C 12,4 C 81 % 1012,8 hPa 0,0 mm 0,0 km/h (0 Bft) N 360 9,4 C 0,0 km/h (0 Bft)
13.08.2015 06:40 12,6 C 12,5 C 81 % 1012,8 hPa 0,0 mm 0,0 km/h (0 Bft) N 360 9,4 C 0,0 km/h (0 Bft)
13.08.2015 06:45 12,7 C 12,7 C 81 % 1012,8 hPa 0,0 mm 0,0 km/h (0 Bft) N 360 9,5 C 0,0 km/h (0 Bft)
13.08.2015 06:50 12,7 C 12,9 C 81 % 1012,8 hPa 0,0 mm 0,0 km/h (0 Bft) N 360 9,5 C 0,0 km/h (0 Bft)
13.08.2015 06:55 12,9 C 13,2 C 81 % 1012,6 hPa 0,0 mm 0,0 km/h (0 Bft) N 360 9,7 C 0,0 km/h (0 Bft)
13.08.2015 07:00 12,9 C 14,9 C 81 % 1012,6 hPa 0,0 mm 0,0 km/h (0 Bft) NO 45 9,7 C 0,0 km/h (0 Bft)
13.08.2015 07:05 13,1 C 16,1 C 80 % 1012,6 hPa 0,0 mm 0,0 km/h (0 Bft) N-NO 22 9,7 C 0,0 km/h (0 Bft)
13.08.2015 07:10 13,3 C 17,7 C 80 % 1012,6 hPa 0,0 mm 0,0 km/h (0 Bft) O-NO 67 9,9 C 0,0 km/h (0 Bft)
13.08.2015 07:15 13,4 C 18,4 C 80 % 1012,6 hPa 0,0 mm 0,0 km/h (0 Bft) NW 315 10,0 C 0,0 km/h (0 Bft)
13.08.2015 07:20 13,6 C 17,5 C 80 % 1012,6 hPa 0,0 mm 0,0 km/h (0 Bft) O-NO 67 10,2 C 0,0 km/h (0 Bft)
13.08.2015 07:25 14,0 C 16,8 C 77 % 1012,6 hPa 0,0 mm 0,0 km/h (0 Bft) O-NO 67 10,0 C 0,0 km/h (0 Bft)
13.08.2015 07:30 14,3 C 16,5 C 77 % 1012,6 hPa 0,0 mm 0,0 km/h (0 Bft) O-NO 67 10,3 C 0,0 km/h (0 Bft)
13.08.2015 07:35 14,4 C 18,0 C 76 % 1012,4 hPa 0,0 mm 0,0 km/h (0 Bft) NO 45 10,2 C 0,0 km/h (0 Bft)
13.08.2015 07:40 14,9 C 21,0 C 76 % 1012,4 hPa 0,0 mm 0,0 km/h (0 Bft) NO 45 10,7 C 0,0 km/h (0 Bft)
13.08.2015 07:45 15,5 C 22,5 C 76 % 1012,4 hPa 0,0 mm 0,0 km/h (0 Bft) NO 45 11,3 C 0,0 km/h (0 Bft)
13.08.2015 07:50 17,0 C 24,0 C 74 % 1012,4 hPa 0,0 mm 0,0 km/h (0 Bft) NW 315 12,3 C 0,0 km/h (0 Bft)
13.08.2015 07:55 18,0 C 24,7 C 72 % 1012,1 hPa 0,0 mm 0,0 km/h (0 Bft) N 360 12,9 C 0,0 km/h (0 Bft)
13.08.2015 08:00 19,1 C 25,8 C 71 % 1012,1 hPa 0,0 mm 0,0 km/h (0 Bft) S 180 13,7 C 0,0 km/h (0 Bft)
13.08.2015 08:05 19,0 C 26,5 C 70 % 1012,1 hPa 0,0 mm 0,0 km/h (0 Bft) O-SO 112 13,4 C 0,0 km/h (0 Bft)
13.08.2015 08:10 19,1 C 26,9 C 69 % 1012,1 hPa 0,0 mm 0,0 km/h (0 Bft) O-SO 112 13,3 C 0,0 km/h (0 Bft)
13.08.2015 08:15 19,4 C 27,4 C 69 % 1012,2 hPa 0,0 mm 0,0 km/h (0 Bft) O-NO 67 13,6 C 0,0 km/h (0 Bft)
13.08.2015 08:20 19,9 C 27,9 C 68 % 1012,2 hPa 0,0 mm 0,0 km/h (0 Bft) W-NW 292 13,8 C 0,0 km/h (0 Bft)
13.08.2015 08:25 20,8 C 28,5 C 67 % 1012,2 hPa 0,0 mm 0,0 km/h (0 Bft) N-NO 22 14,4 C 0,0 km/h (0 Bft)
13.08.2015 08:30 21,0 C 29,6 C 65 % 1012,2 hPa 0,0 mm 0,0 km/h (0 Bft) N-NO 22 14,2 C 0,0 km/h (0 Bft)
13.08.2015 08:35 21,1 C 30,4 C 65 % 1012,1 hPa 0,0 mm 0,0 km/h (0 Bft) N-NO 22 14,3 C 0,0 km/h (0 Bft)
13.08.2015 08:40 21,3 C 31,4 C 65 % 1012,1 hPa 0,0 mm 0,0 km/h (0 Bft) NW 315 14,4 C 0,0 km/h (0 Bft)
13.08.2015 08:45 21,7 C 31,7 C 64 % 1012,1 hPa 0,0 mm 0,0 km/h (0 Bft) N-NO 22 14,6 C 0,0 km/h (0 Bft)
13.08.2015 08:50 21,6 C 32,3 C 63 % 1012,1 hPa 0,0 mm 0,0 km/h (0 Bft) N-NO 22 14,2 C 0,0 km/h (0 Bft)
13.08.2015 08:55 21,8 C 33,1 C 64 % 1012,3 hPa 0,0 mm 0,0 km/h (0 Bft) N-NO 22 14,7 C 0,0 km/h (0 Bft)
13.08.2015 09:00 22,4 C 33,8 C 64 % 1012,3 hPa 0,0 mm 0,0 km/h (0 Bft) N-NO 22 15,2 C 0,0 km/h (0 Bft)
13.08.2015 09:05 22,6 C 34,1 C 64 % 1012,3 hPa 0,0 mm 0,0 km/h (0 Bft) N-NO 22 15,4 C 0,0 km/h (0 Bft)
13.08.2015 09:10 22,9 C 34,3 C 63 % 1012,3 hPa 0,0 mm 0,0 km/h (0 Bft) NO 45 15,5 C 0,0 km/h (0 Bft)
13.08.2015 09:15 23,0 C 34,1 C 62 % 1012,6 hPa 0,0 mm 0,0 km/h (0 Bft) O-NO 67 15,3 C 0,0 km/h (0 Bft)
13.08.2015 09:20 23,7 C 34,0 C 62 % 1012,6 hPa 0,0 mm 1,0 km/h (0 Bft) W 270 16,0 C 5,7 km/h (1 Bft)
13.08.2015 09:25 24,3 C 33,5 C 60 % 1012,6 hPa 0,0 mm 2,6 km/h (1 Bft) W-NW 292 16,0 C 3,4 km/h (1 Bft)
13.08.2015 09:30 25,1 C 33,5 C 59 % 1012,6 hPa 0,0 mm 2,1 km/h (1 Bft) SO 135 16,5 C 7,0 km/h (2 Bft)
13.08.2015 09:35 25,2 C 34,0 C 60 % 1012,9 hPa 0,0 mm 0,8 km/h (0 Bft) N-NW 337 16,9 C 0,0 km/h (0 Bft)
13.08.2015 09:40 25,1 C 34,8 C 59 % 1012,9 hPa 0,0 mm 0,0 km/h (0 Bft) O-NO 67 16,5 C 0,0 km/h (0 Bft)
13.08.2015 09:45 25,3 C 34,6 C 58 % 1012,9 hPa 0,0 mm 0,0 km/h (0 Bft) W-NW 292 16,4 C 0,0 km/h (0 Bft)
13.08.2015 09:50 26,1 C 35,4 C 56 % 1012,9 hPa 0,0 mm 0,0 km/h (0 Bft) N-NO 22 16,6 C 0,0 km/h (0 Bft)
13.08.2015 09:55 26,7 C 35,9 C 55 % 1012,9 hPa 0,0 mm 0,0 km/h (0 Bft) W 270 16,9 C 0,0 km/h (0 Bft)
13.08.2015 10:00 26,7 C 36,0 C 53 % 1012,9 hPa 0,0 mm 0,0 km/h (0 Bft) NO 45 16,3 C 0,0 km/h (0 Bft)
13.08.2015 10:05 26,6 C 35,5 C 53 % 1012,9 hPa 0,0 mm 0,3 km/h (0 Bft) O-NO 67 16,2 C 0,0 km/h (0 Bft)
13.08.2015 10:10 26,5 C 34,7 C 53 % 1012,9 hPa 0,0 mm 0,5 km/h (0 Bft) O-NO 67 16,1 C 0,0 km/h (0 Bft)
13.08.2015 10:15 26,8 C 34,8 C 53 % 1013,1 hPa 0,0 mm 0,3 km/h (0 Bft) N-NO 22 16,4 C 0,0 km/h (0 Bft)
13.08.2015 10:20 27,2 C 34,7 C 53 % 1013,1 hPa 0,0 mm 1,0 km/h (0 Bft) O-SO 112 16,8 C 0,0 km/h (0 Bft)
13.08.2015 10:25 27,7 C 34,7 C 53 % 1013,1 hPa 0,0 mm 1,3 km/h (1 Bft) O 90 17,2 C 0,0 km/h (0 Bft)
13.08.2015 10:30 27,9 C 34,5 C 51 % 1013,1 hPa 0,0 mm 3,4 km/h (1 Bft) NO 45 16,8 C 12,2 km/h (2 Bft)
13.08.2015 10:35 27,8 C 33,9 C 51 % 1013,2 hPa 0,0 mm 4,7 km/h (1 Bft) NO 45 16,7 C 6,7 km/h (2 Bft)
13.08.2015 10:40 27,8 C 33,6 C 50 % 1013,2 hPa 0,0 mm 4,9 km/h (1 Bft) O-SO 112 16,4 C 15,0 km/h (3 Bft)
13.08.2015 10:45 27,9 C 33,9 C 51 % 1013,2 hPa 0,0 mm 3,6 km/h (1 Bft) O-NO 67 16,8 C 4,4 km/h (1 Bft)
13.08.2015 10:50 28,2 C 34,0 C 50 % 1013,2 hPa 0,0 mm 3,4 km/h (1 Bft) NO 45 16,8 C 10,4 km/h (2 Bft)
13.08.2015 10:55 28,1 C 33,9 C 49 % 1013,3 hPa 0,0 mm 4,4 km/h (1 Bft) O-NO 67 16,4 C 7,0 km/h (2 Bft)
13.08.2015 11:00 28,3 C 34,1 C 48 % 1013,3 hPa 0,0 mm 4,1 km/h (1 Bft) NO 45 16,2 C 7,0 km/h (2 Bft)
13.08.2015 11:05 28,1 C 33,9 C 48 % 1013,3 hPa 0,0 mm 4,7 km/h (1 Bft) NO 45 16,0 C 7,5 km/h (2 Bft)
13.08.2015 11:10 28,3 C 33,8 C 48 % 1013,3 hPa 0,0 mm 4,9 km/h (1 Bft) O-NO 67 16,2 C 3,4 km/h (1 Bft)
13.08.2015 11:15 28,7 C 34,3 C 49 % 1012,8 hPa 0,0 mm 3,9 km/h (1 Bft) O-NO 67 16,9 C 13,2 km/h (3 Bft)
13.08.2015 11:16 28,7 C 34,2 C 48 % 1012,8 hPa 0,0 mm 4,1 km/h (1 Bft) N-NO 22 16,6 C 4,4 km/h (1 Bft)
13.08.2015 11:19 28,7 C 34,2 C 48 % 1012,8 hPa 0,0 mm 4,1 km/h (1 Bft) N-NO 22 16,6 C 4,4 km/h (1 Bft)
13.08.2015 11:20 28,7 C 34,2 C 48 % 1012,8 hPa 0,0 mm 4,1 km/h (1 Bft) N-NO 22 16,6 C 4,4 km/h (1 Bft)
13.08.2015 11:25 28,8 C 34,4 C 48 % 1012,8 hPa 0,0 mm 4,1 km/h (1 Bft) O-SO 112 16,7 C 3,1 km/h (1 Bft)
13.08.2015 11:30 29,0 C 34,6 C 47 % 1012,8 hPa 0,0 mm 3,4 km/h (1 Bft) N-NO 22 16,5 C 8,8 km/h (2 Bft)
13.08.2015 11:35 28,8 C 34,2 C 47 % 1013,1 hPa 0,0 mm 5,4 km/h (1 Bft) NO 45 16,3 C 10,6 km/h (2 Bft)
13.08.2015 11:40 28,8 C 33,8 C 47 % 1013,1 hPa 0,0 mm 7,5 km/h (2 Bft) O-SO 112 16,3 C 6,2 km/h (2 Bft)
13.08.2015 11:45 29,0 C 34,0 C 46 % 1013,1 hPa 0,0 mm 6,7 km/h (2 Bft) NO 45 16,2 C 9,3 km/h (2 Bft)
13.08.2015 11:50 29,3 C 34,3 C 46 % 1013,1 hPa 0,0 mm 5,4 km/h (1 Bft) O-NO 67 16,5 C 9,3 km/h (2 Bft)
13.08.2015 11:55 29,4 C 34,3 C 46 % 1013,1 hPa 0,0 mm 6,0 km/h (2 Bft) NW 315 16,5 C 4,4 km/h (1 Bft)
13.08.2015 12:00 29,5 C 34,2 C 44 % 1013,1 hPa 0,0 mm 7,3 km/h (2 Bft) SW 225 15,9 C 8,5 km/h (2 Bft)
13.08.2015 12:05 29,5 C 34,1 C 43 % 1013,1 hPa 0,0 mm 7,0 km/h (2 Bft) NO 45 15,6 C 9,8 km/h (2 Bft)
13.08.2015 12:10 29,6 C 34,2 C 45 % 1013,1 hPa 0,0 mm 7,0 km/h (2 Bft) N-NO 22 16,4 C 8,5 km/h (2 Bft)
13.08.2015 12:15 29,8 C 34,3 C 44 % 1012,8 hPa 0,0 mm 7,0 km/h (2 Bft) NO 45 16,2 C 8,3 km/h (2 Bft)
13.08.2015 12:20 30,0 C 34,6 C 44 % 1012,8 hPa 0,0 mm 5,7 km/h (1 Bft) NO 45 16,4 C 20,2 km/h (4 Bft)
13.08.2015 12:25 30,2 C 34,9 C 41 % 1012,8 hPa 0,0 mm 5,2 km/h (1 Bft) N-NO 22 15,5 C 8,5 km/h (2 Bft)
13.08.2015 12:30 30,2 C 34,9 C 39 % 1012,8 hPa 0,0 mm 6,2 km/h (2 Bft) NO 45 14,7 C 13,2 km/h (3 Bft)
13.08.2015 12:35 30,4 C 34,8 C 40 % 1012,6 hPa 0,0 mm 7,0 km/h (2 Bft) O-NO 67 15,3 C 8,0 km/h (2 Bft)
13.08.2015 12:40 30,5 C 34,9 C 38 % 1012,6 hPa 0,0 mm 8,3 km/h (2 Bft) N-NO 22 14,5 C 10,1 km/h (2 Bft)
13.08.2015 12:45 30,5 C 35,0 C 39 % 1012,6 hPa 0,0 mm 7,3 km/h (2 Bft) NO 45 15,0 C 6,7 km/h (2 Bft)
13.08.2015 12:50 30,7 C 35,4 C 39 % 1012,6 hPa 0,0 mm 6,2 km/h (2 Bft) N-NO 22 15,1 C 15,8 km/h (3 Bft)
13.08.2015 12:55 30,7 C 35,2 C 38 % 1012,3 hPa 0,0 mm 6,2 km/h (2 Bft) N-NO 22 14,7 C 3,1 km/h (1 Bft)
13.08.2015 13:00 30,7 C 35,2 C 37 % 1012,3 hPa 0,0 mm 7,8 km/h (2 Bft) SW 225 14,3 C 21,8 km/h (4 Bft)
13.08.2015 13:05 30,8 C 35,4 C 38 % 1012,3 hPa 0,0 mm 5,7 km/h (1 Bft) N-NO 22 14,8 C 10,1 km/h (2 Bft)
13.08.2015 13:10 30,8 C 35,2 C 36 % 1012,3 hPa 0,0 mm 6,2 km/h (2 Bft) O-NO 67 14,0 C 6,2 km/h (2 Bft)
13.08.2015 13:15 31,0 C 35,5 C 37 % 1012,1 hPa 0,0 mm 6,5 km/h (2 Bft) SO 135 14,6 C 9,3 km/h (2 Bft)
13.08.2015 13:20 31,0 C 35,7 C 35 % 1012,1 hPa 0,0 mm 4,9 km/h (1 Bft) NO 45 13,7 C 6,0 km/h (2 Bft)
13.08.2015 13:25 31,3 C 36,1 C 35 % 1012,1 hPa 0,0 mm 4,4 km/h (1 Bft) NO 45 14,0 C 6,2 km/h (2 Bft)
13.08.2015 13:30 31,2 C 35,7 C 35 % 1012,1 hPa 0,0 mm 3,6 km/h (1 Bft) O-NO 67 13,9 C 5,7 km/h (1 Bft)
13.08.2015 13:35 31,3 C 35,2 C 34 % 1012,1 hPa 0,0 mm 4,7 km/h (1 Bft) O-NO 67 13,5 C 8,5 km/h (2 Bft)
13.08.2015 13:40 31,7 C 34,5 C 34 % 1012,1 hPa 0,0 mm 3,4 km/h (1 Bft) O-SO 112 13,9 C 5,4 km/h (1 Bft)
13.08.2015 13:45 31,9 C 34,3 C 34 % 1012,1 hPa 0,0 mm 3,1 km/h (1 Bft) SO 135 14,1 C 3,9 km/h (1 Bft)
13.08.2015 13:50 31,9 C 34,5 C 33 % 1012,1 hPa 0,0 mm 2,3 km/h (1 Bft) W 270 13,6 C 5,2 km/h (1 Bft)
13.08.2015 13:55 31,9 C 35,0 C 35 % 1011,8 hPa 0,0 mm 2,8 km/h (1 Bft) O-NO 67 14,5 C 7,3 km/h (2 Bft)
13.08.2015 14:00 31,9 C 35,7 C 33 % 1011,8 hPa 0,0 mm 5,2 km/h (1 Bft) O-SO 112 13,6 C 4,4 km/h (1 Bft)
13.08.2015 14:05 31,7 C 36,0 C 32 % 1011,8 hPa 0,0 mm 5,2 km/h (1 Bft) N-NO 22 12,9 C 0,0 km/h (0 Bft)
13.08.2015 14:10 31,9 C 36,5 C 31 % 1011,8 hPa 0,0 mm 4,7 km/h (1 Bft) O-SO 112 12,6 C 5,4 km/h (1 Bft)
13.08.2015 14:15 31,8 C 36,7 C 32 % 1011,4 hPa 0,0 mm 3,1 km/h (1 Bft) W 270 13,0 C 0,0 km/h (0 Bft)
13.08.2015 14:20 32,0 C 36,7 C 33 % 1011,4 hPa 0,0 mm 5,2 km/h (1 Bft) NO 45 13,7 C 6,7 km/h (2 Bft)
13.08.2015 14:25 32,0 C 36,8 C 34 % 1011,4 hPa 0,0 mm 5,2 km/h (1 Bft) O-NO 67 14,1 C 7,8 km/h (2 Bft)
13.08.2015 14:30 31,9 C 36,8 C 33 % 1011,4 hPa 0,0 mm 4,9 km/h (1 Bft) N-NO 22 13,6 C 8,3 km/h (2 Bft)
13.08.2015 14:35 31,9 C 36,7 C 32 % 1011,2 hPa 0,0 mm 4,9 km/h (1 Bft) O 90 13,1 C 0,0 km/h (0 Bft)
13.08.2015 14:40 32,1 C 37,0 C 31 % 1011,2 hPa 0,0 mm 4,1 km/h (1 Bft) O-NO 67 12,8 C 4,4 km/h (1 Bft)
13.08.2015 14:45 32,1 C 37,4 C 31 % 1011,2 hPa 0,0 mm 2,6 km/h (1 Bft) NO 45 12,8 C 3,9 km/h (1 Bft)
13.08.2015 14:50 32,1 C 37,3 C 33 % 1011,2 hPa 0,0 mm 3,4 km/h (1 Bft) O-NO 67 13,8 C 9,3 km/h (2 Bft)
13.08.2015 14:55 32,0 C 37,2 C 32 % 1010,8 hPa 0,0 mm 4,7 km/h (1 Bft) NO 45 13,2 C 6,7 km/h (2 Bft)
13.08.2015 15:00 32,2 C 37,2 C 32 % 1010,8 hPa 0,0 mm 4,4 km/h (1 Bft) O 90 13,4 C 0,0 km/h (0 Bft)
13.08.2015 15:05 32,2 C 37,4 C 32 % 1010,8 hPa 0,0 mm 4,9 km/h (1 Bft) N-NO 22 13,4 C 7,0 km/h (2 Bft)
13.08.2015 15:10 32,2 C 37,0 C 31 % 1010,8 hPa 0,0 mm 5,4 km/h (1 Bft) NO 45 12,9 C 4,7 km/h (1 Bft)
13.08.2015 15:15 32,2 C 37,1 C 31 % 1010,5 hPa 0,0 mm 5,7 km/h (1 Bft) O-SO 112 12,9 C 6,0 km/h (2 Bft)
13.08.2015 15:20 32,1 C 37,0 C 30 % 1010,5 hPa 0,0 mm 5,2 km/h (1 Bft) O-SO 112 12,3 C 3,6 km/h (1 Bft)
13.08.2015 15:25 32,1 C 37,2 C 31 % 1010,5 hPa 0,0 mm 4,4 km/h (1 Bft) N-NO 22 12,8 C 8,8 km/h (2 Bft)
13.08.2015 15:30 32,3 C 37,2 C 31 % 1010,5 hPa 0,0 mm 4,4 km/h (1 Bft) N-NO 22 13,0 C 8,0 km/h (2 Bft)
13.08.2015 15:35 32,4 C 36,9 C 31 % 1010,1 hPa 0,0 mm 6,2 km/h (2 Bft) N-NW 337 13,1 C 6,7 km/h (2 Bft)
13.08.2015 15:40 32,3 C 37,0 C 32 % 1010,1 hPa 0,0 mm 5,7 km/h (1 Bft) O-NO 67 13,5 C 5,4 km/h (1 Bft)
13.08.2015 15:45 32,0 C 37,0 C 32 % 1010,1 hPa 0,0 mm 4,4 km/h (1 Bft) O-NO 67 13,2 C 7,3 km/h (2 Bft)
13.08.2015 15:50 32,1 C 37,2 C 32 % 1010,1 hPa 0,0 mm 4,4 km/h (1 Bft) NO 45 13,3 C 9,1 km/h (2 Bft)
13.08.2015 15:55 32,0 C 37,0 C 31 % 1010,1 hPa 0,0 mm 4,1 km/h (1 Bft) O-NO 67 12,7 C 5,7 km/h (1 Bft)
13.08.2015 16:00 32,2 C 37,1 C 32 % 1010,1 hPa 0,0 mm 5,2 km/h (1 Bft) N 360 13,4 C 9,3 km/h (2 Bft)
13.08.2015 16:05 32,3 C 37,2 C 31 % 1010,1 hPa 0,0 mm 4,4 km/h (1 Bft) W 270 13,0 C 6,0 km/h (2 Bft)
13.08.2015 16:10 32,4 C 37,5 C 29 % 1010,1 hPa 0,0 mm 4,7 km/h (1 Bft) W 270 12,1 C 13,2 km/h (3 Bft)
13.08.2015 16:15 32,3 C 37,1 C 29 % 1009,8 hPa 0,0 mm 6,2 km/h (2 Bft) N-NW 337 12,0 C 9,8 km/h (2 Bft)
13.08.2015 16:20 31,9 C 36,7 C 30 % 1009,8 hPa 0,0 mm 7,0 km/h (2 Bft) NO 45 12,1 C 6,7 km/h (2 Bft)
13.08.2015 16:25 31,5 C 36,5 C 29 % 1009,8 hPa 0,0 mm 7,3 km/h (2 Bft) N-NW 337 11,3 C 11,4 km/h (2 Bft)
13.08.2015 16:30 31,2 C 36,1 C 29 % 1009,8 hPa 0,0 mm 8,0 km/h (2 Bft) N-NO 22 11,0 C 6,2 km/h (2 Bft)
13.08.2015 16:35 31,2 C 36,7 C 28 % 1009,6 hPa 0,0 mm 4,9 km/h (1 Bft) NW 315 10,5 C 0,0 km/h (0 Bft)
13.08.2015 16:40 31,0 C 37,3 C 29 % 1009,6 hPa 0,0 mm 3,1 km/h (1 Bft) NW 315 10,9 C 9,8 km/h (2 Bft)
13.08.2015 16:45 30,9 C 37,2 C 30 % 1009,6 hPa 0,0 mm 4,1 km/h (1 Bft) W-NW 292 11,3 C 3,9 km/h (1 Bft)
13.08.2015 16:50 30,7 C 36,7 C 31 % 1009,6 hPa 0,0 mm 2,3 km/h (1 Bft) S-SO 157 11,6 C 0,0 km/h (0 Bft)
13.08.2015 16:55 30,5 C 35,7 C 30 % 1009,4 hPa 0,0 mm 1,0 km/h (0 Bft) S 180 10,9 C 5,4 km/h (1 Bft)
13.08.2015 17:00 30,4 C 33,9 C 30 % 1009,4 hPa 0,0 mm 2,3 km/h (1 Bft) NO 45 10,9 C 3,6 km/h (1 Bft)
13.08.2015 17:05 30,3 C 33,2 C 31 % 1009,4 hPa 0,0 mm 3,6 km/h (1 Bft) N-NW 337 11,3 C 8,0 km/h (2 Bft)
13.08.2015 17:10 30,2 C 32,3 C 31 % 1009,4 hPa 0,0 mm 4,4 km/h (1 Bft) O-SO 112 11,2 C 0,0 km/h (0 Bft)
13.08.2015 17:15 30,1 C 32,1 C 31 % 1009,1 hPa 0,0 mm 4,9 km/h (1 Bft) N 360 11,1 C 6,2 km/h (2 Bft)
13.08.2015 17:16 30,2 C 31,8 C 31 % 1009,1 hPa 0,0 mm 3,4 km/h (1 Bft) NO 45 11,2 C 2,8 km/h (1 Bft)
13.08.2015 17:20 30,2 C 31,8 C 31 % 1009,1 hPa 0,0 mm 3,4 km/h (1 Bft) NO 45 11,2 C 2,8 km/h (1 Bft)
13.08.2015 17:25 30,0 C 31,7 C 31 % 1009,1 hPa 0,0 mm 2,8 km/h (1 Bft) NW 315 11,0 C 2,8 km/h (1 Bft)
13.08.2015 17:30 29,9 C 31,6 C 31 % 1009,1 hPa 0,0 mm 2,8 km/h (1 Bft) NO 45 10,9 C 2,6 km/h (1 Bft)
13.08.2015 17:35 29,7 C 31,4 C 31 % 1009,0 hPa 0,0 mm 2,8 km/h (1 Bft) O-SO 112 10,7 C 5,2 km/h (1 Bft)
13.08.2015 17:40 29,6 C 31,3 C 31 % 1009,0 hPa 0,0 mm 1,3 km/h (1 Bft) SO 135 10,7 C 0,0 km/h (0 Bft)
13.08.2015 17:45 29,5 C 31,2 C 32 % 1009,0 hPa 0,0 mm 1,3 km/h (1 Bft) W-SW 247 11,0 C 0,0 km/h (0 Bft)
13.08.2015 17:50 29,4 C 31,1 C 32 % 1009,0 hPa 0,0 mm 0,3 km/h (0 Bft) S-SO 157 11,0 C 0,0 km/h (0 Bft)
13.08.2015 17:55 29,2 C 31,0 C 33 % 1009,0 hPa 0,0 mm 0,3 km/h (0 Bft) O-NO 67 11,3 C 0,0 km/h (0 Bft)
13.08.2015 18:00 29,2 C 30,9 C 32 % 1009,0 hPa 0,0 mm 0,3 km/h (0 Bft) N-NO 22 10,8 C 0,0 km/h (0 Bft)
13.08.2015 18:05 29,1 C 30,8 C 34 % 1009,0 hPa 0,0 mm 0,3 km/h (0 Bft) O-NO 67 11,6 C 0,0 km/h (0 Bft)
13.08.2015 18:10 29,1 C 30,7 C 33 % 1009,0 hPa 0,0 mm 2,8 km/h (1 Bft) O-SO 112 11,2 C 3,9 km/h (1 Bft)
13.08.2015 18:15 28,9 C 30,5 C 33 % 1008,8 hPa 0,0 mm 3,6 km/h (1 Bft) SO 135 11,0 C 4,9 km/h (1 Bft)
13.08.2015 18:20 28,8 C 30,2 C 33 % 1008,8 hPa 0,0 mm 2,8 km/h (1 Bft) O-NO 67 10,9 C 10,4 km/h (2 Bft)
13.08.2015 18:25 28,9 C 30,1 C 33 % 1008,8 hPa 0,0 mm 4,4 km/h (1 Bft) O-NO 67 11,0 C 10,1 km/h (2 Bft)
13.08.2015 18:30 28,9 C 30,1 C 32 % 1008,8 hPa 0,0 mm 7,0 km/h (2 Bft) NO 45 10,5 C 12,4 km/h (3 Bft)
13.08.2015 18:35 28,8 C 30,0 C 32 % 1008,5 hPa 0,0 mm 7,8 km/h (2 Bft) N 360 10,4 C 11,4 km/h (2 Bft)
13.08.2015 18:40 28,6 C 29,8 C 33 % 1008,5 hPa 0,0 mm 4,9 km/h (1 Bft) N-NO 22 10,7 C 3,1 km/h (1 Bft)
13.08.2015 18:45 28,6 C 29,7 C 32 % 1008,5 hPa 0,0 mm 4,4 km/h (1 Bft) NO 45 10,3 C 7,8 km/h (2 Bft)
13.08.2015 18:50 28,4 C 29,5 C 33 % 1008,5 hPa 0,0 mm 2,8 km/h (1 Bft) SO 135 10,6 C 0,0 km/h (0 Bft)
13.08.2015 18:55 28,1 C 29,4 C 34 % 1008,3 hPa 0,0 mm 1,6 km/h (1 Bft) S-SO 157 10,7 C 0,0 km/h (0 Bft)
13.08.2015 19:00 27,9 C 29,1 C 35 % 1008,3 hPa 0,0 mm 0,5 km/h (0 Bft) O-SO 112 11,0 C 2,8 km/h (1 Bft)
13.08.2015 19:05 27,9 C 29,0 C 35 % 1008,3 hPa 0,0 mm 0,8 km/h (0 Bft) S-SO 157 11,0 C 0,0 km/h (0 Bft)
13.08.2015 19:10 27,5 C 28,7 C 38 % 1008,3 hPa 0,0 mm 0,5 km/h (0 Bft) S 180 11,9 C 2,6 km/h (1 Bft)
13.08.2015 19:15 27,5 C 28,5 C 39 % 1008,1 hPa 0,0 mm 0,3 km/h (0 Bft) NO 45 12,3 C 0,0 km/h (0 Bft)
13.08.2015 19:20 27,5 C 28,3 C 39 % 1008,1 hPa 0,0 mm 1,0 km/h (0 Bft) SO 135 12,3 C 3,6 km/h (1 Bft)
13.08.2015 19:25 27,2 C 28,1 C 39 % 1008,1 hPa 0,0 mm 1,8 km/h (1 Bft) SO 135 12,0 C 4,7 km/h (1 Bft)
13.08.2015 19:30 27,0 C 28,1 C 40 % 1008,1 hPa 0,0 mm 1,3 km/h (1 Bft) S 180 12,2 C 0,0 km/h (0 Bft)
13.08.2015 19:35 26,8 C 28,5 C 42 % 1007,6 hPa 0,0 mm 1,0 km/h (0 Bft) SO 135 12,8 C 3,6 km/h (1 Bft)
13.08.2015 19:40 26,7 C 29,0 C 41 % 1007,6 hPa 0,0 mm 1,0 km/h (0 Bft) SO 135 12,3 C 0,0 km/h (0 Bft)
13.08.2015 19:45 26,5 C 29,1 C 42 % 1007,6 hPa 0,0 mm 1,0 km/h (0 Bft) S-SO 157 12,5 C 0,0 km/h (0 Bft)
13.08.2015 19:50 26,1 C 29,0 C 44 % 1007,6 hPa 0,0 mm 0,5 km/h (0 Bft) O-SO 112 12,9 C 0,0 km/h (0 Bft)
13.08.2015 19:55 25,9 C 28,8 C 46 % 1007,8 hPa 0,0 mm 0,5 km/h (0 Bft) O-SO 112 13,4 C 3,6 km/h (1 Bft)
13.08.2015 20:00 25,5 C 28,3 C 46 % 1007,8 hPa 0,0 mm 0,3 km/h (0 Bft) SO 135 13,0 C 0,0 km/h (0 Bft)
13.08.2015 20:05 25,2 C 27,8 C 46 % 1007,8 hPa 0,0 mm 0,3 km/h (0 Bft) S 180 12,7 C 0,0 km/h (0 Bft)
13.08.2015 20:10 25,0 C 27,1 C 46 % 1007,8 hPa 0,0 mm 0,0 km/h (0 Bft) SO 135 12,6 C 0,0 km/h (0 Bft)
13.08.2015 20:15 24,9 C 26,3 C 46 % 1007,8 hPa 0,0 mm 0,3 km/h (0 Bft) O-SO 112 12,5 C 0,0 km/h (0 Bft)
13.08.2015 20:20 24,3 C 25,4 C 47 % 1007,8 hPa 0,0 mm 0,3 km/h (0 Bft) W 270 12,3 C 0,0 km/h (0 Bft)
13.08.2015 20:25 24,0 C 24,8 C 48 % 1007,8 hPa 0,0 mm 0,0 km/h (0 Bft) S-SO 157 12,3 C 0,0 km/h (0 Bft)
13.08.2015 20:30 23,8 C 24,2 C 49 % 1007,8 hPa 0,0 mm 0,0 km/h (0 Bft) S 180 12,4 C 0,0 km/h (0 Bft)
13.08.2015 20:35 23,8 C 23,9 C 49 % 1007,7 hPa 0,0 mm 0,3 km/h (0 Bft) S 180 12,4 C 2,6 km/h (1 Bft)
13.08.2015 20:40 23,2 C 23,6 C 50 % 1007,7 hPa 0,0 mm 0,3 km/h (0 Bft) S-SO 157 12,2 C 2,8 km/h (1 Bft)
13.08.2015 20:45 23,2 C 23,5 C 50 % 1007,7 hPa 0,0 mm 0,5 km/h (0 Bft) S 180 12,2 C 3,1 km/h (1 Bft)
13.08.2015 20:50 22,8 C 23,3 C 53 % 1007,7 hPa 0,0 mm 1,3 km/h (1 Bft) SO 135 12,7 C 2,6 km/h (1 Bft)
13.08.2015 20:55 22,8 C 23,2 C 53 % 1007,7 hPa 0,0 mm 1,3 km/h (1 Bft) SO 135 12,7 C 0,0 km/h (0 Bft)
13.08.2015 21:00 22,6 C 23,1 C 54 % 1007,7 hPa 0,0 mm 1,3 km/h (1 Bft) S 180 12,8 C 0,0 km/h (0 Bft)
13.08.2015 21:05 23,0 C 23,3 C 52 % 1007,7 hPa 0,0 mm 1,6 km/h (1 Bft) S 180 12,6 C 0,0 km/h (0 Bft)
13.08.2015 21:10 21,8 C 23,0 C 54 % 1007,7 hPa 0,0 mm 1,6 km/h (1 Bft) O-NO 67 12,1 C 0,0 km/h (0 Bft)
13.08.2015 21:15 21,2 C 22,5 C 55 % 1007,9 hPa 0,0 mm 1,0 km/h (0 Bft) NO 45 11,8 C 0,0 km/h (0 Bft)
13.08.2015 21:20 20,9 C 21,6 C 56 % 1007,9 hPa 0,0 mm 0,0 km/h (0 Bft) O-NO 67 11,8 C 0,0 km/h (0 Bft)
13.08.2015 21:25 20,7 C 21,3 C 57 % 1007,9 hPa 0,0 mm 0,0 km/h (0 Bft) O 90 11,9 C 0,0 km/h (0 Bft)
13.08.2015 21:30 20,9 C 21,0 C 58 % 1007,9 hPa 0,0 mm 0,0 km/h (0 Bft) O-SO 112 12,3 C 0,0 km/h (0 Bft)
13.08.2015 21:35 20,8 C 20,9 C 58 % 1007,8 hPa 0,0 mm 0,0 km/h (0 Bft) N-NO 22 12,2 C 0,0 km/h (0 Bft)
13.08.2015 21:40 20,3 C 20,5 C 58 % 1007,8 hPa 0,0 mm 0,0 km/h (0 Bft) S 180 11,8 C 0,0 km/h (0 Bft)
13.08.2015 21:45 20,0 C 20,3 C 58 % 1007,8 hPa 0,0 mm 0,0 km/h (0 Bft) N-NO 22 11,5 C 0,0 km/h (0 Bft)
13.08.2015 21:50 19,9 C 19,9 C 60 % 1007,8 hPa 0,0 mm 0,0 km/h (0 Bft) SO 135 11,9 C 0,0 km/h (0 Bft)
13.08.2015 21:55 19,9 C 19,9 C 62 % 1007,8 hPa 0,0 mm 0,3 km/h (0 Bft) W-SW 247 12,4 C 0,0 km/h (0 Bft)
13.08.2015 22:00 19,7 C 20,1 C 62 % 1007,8 hPa 0,0 mm 0,3 km/h (0 Bft) S 180 12,2 C 0,0 km/h (0 Bft)
13.08.2015 22:05 19,7 C 19,9 C 61 % 1007,8 hPa 0,0 mm 0,0 km/h (0 Bft) SO 135 12,0 C 0,0 km/h (0 Bft)
13.08.2015 22:10 19,2 C 19,8 C 61 % 1007,8 hPa 0,0 mm 0,3 km/h (0 Bft) O-NO 67 11,5 C 0,0 km/h (0 Bft)
13.08.2015 22:15 19,0 C 19,5 C 62 % 1007,8 hPa 0,0 mm 0,0 km/h (0 Bft) O-NO 67 11,6 C 0,0 km/h (0 Bft)
13.08.2015 22:20 19,2 C 19,2 C 62 % 1007,8 hPa 0,0 mm 0,0 km/h (0 Bft) O-NO 67 11,7 C 0,0 km/h (0 Bft)
13.08.2015 22:25 19,4 C 19,3 C 61 % 1007,8 hPa 0,0 mm 0,0 km/h (0 Bft) SO 135 11,7 C 0,0 km/h (0 Bft)
13.08.2015 22:30 19,3 C 19,2 C 60 % 1007,8 hPa 0,0 mm 0,0 km/h (0 Bft) W-SW 247 11,3 C 0,0 km/h (0 Bft)
13.08.2015 22:35 19,5 C 19,4 C 60 % 1007,4 hPa 0,0 mm 0,0 km/h (0 Bft) O-SO 112 11,5 C 0,0 km/h (0 Bft)
13.08.2015 22:40 19,5 C 19,3 C 60 % 1007,4 hPa 0,0 mm 0,0 km/h (0 Bft) O-NO 67 11,5 C 0,0 km/h (0 Bft)
13.08.2015 22:45 19,4 C 19,2 C 60 % 1007,4 hPa 0,0 mm 0,0 km/h (0 Bft) N-NO 22 11,4 C 0,0 km/h (0 Bft)
13.08.2015 22:50 18,9 C 18,8 C 60 % 1007,4 hPa 0,0 mm 0,0 km/h (0 Bft) O-NO 67 11,0 C 0,0 km/h (0 Bft)
13.08.2015 22:55 18,9 C 18,8 C 60 % 1007,2 hPa 0,0 mm 0,0 km/h (0 Bft) O-NO 67 11,0 C 0,0 km/h (0 Bft)
13.08.2015 23:00 18,9 C 18,8 C 60 % 1007,2 hPa 0,0 mm 0,0 km/h (0 Bft) SO 135 11,0 C 0,0 km/h (0 Bft)
13.08.2015 23:05 18,7 C 18,7 C 60 % 1007,2 hPa 0,0 mm 0,0 km/h (0 Bft) N-NO 22 10,8 C 0,0 km/h (0 Bft)
13.08.2015 23:10 19,2 C 19,0 C 60 % 1007,2 hPa 0,0 mm 0,3 km/h (0 Bft) SO 135 11,2 C 0,0 km/h (0 Bft)
13.08.2015 23:15 19,6 C 19,4 C 60 % 1007,5 hPa 0,0 mm 0,5 km/h (0 Bft) O 90 11,6 C 0,0 km/h (0 Bft)
13.08.2015 23:16 19,3 C 19,2 C 59 % 1007,5 hPa 0,0 mm 0,5 km/h (0 Bft) SO 135 11,1 C 0,0 km/h (0 Bft)
13.08.2015 23:21 19,4 C 19,2 C 59 % 1007,5 hPa 0,0 mm 0,0 km/h (0 Bft) S 180 11,2 C 0,0 km/h (0 Bft)
13.08.2015 23:25 19,4 C 19,2 C 59 % 1007,5 hPa 0,0 mm 0,0 km/h (0 Bft) S 180 11,2 C 0,0 km/h (0 Bft)
13.08.2015 23:30 19,5 C 19,3 C 59 % 1007,5 hPa 0,0 mm 0,3 km/h (0 Bft) O-NO 67 11,3 C 0,0 km/h (0 Bft)
13.08.2015 23:35 19,4 C 19,2 C 59 % 1007,4 hPa 0,0 mm 0,3 km/h (0 Bft) SW 225 11,2 C 0,0 km/h (0 Bft)
13.08.2015 23:40 19,9 C 19,7 C 59 % 1007,4 hPa 0,0 mm 2,3 km/h (1 Bft) S-SO 157 11,6 C 0,0 km/h (0 Bft)
13.08.2015 23:45 20,0 C 19,9 C 58 % 1007,4 hPa 0,0 mm 4,9 km/h (1 Bft) S 180 11,5 C 7,8 km/h (2 Bft)
13.08.2015 23:50 19,7 C 19,8 C 59 % 1007,4 hPa 0,0 mm 5,7 km/h (1 Bft) SO 135 11,5 C 6,0 km/h (2 Bft)
13.08.2015 23:55 20,0 C 20,0 C 59 % 1007,6 hPa 0,0 mm 5,2 km/h (1 Bft) NW 315 11,7 C 10,9 km/h (2 Bft)
_ Min-Zeit 06:25 06:25 16:35 23:10 - 23:25 - - 04:40 23:40
Minimum _ 12,5 C 12,3 C 28 % 1007,2 hPa - 0,0 km/h (0 Bft) - - 9,0 C 0,0 km/h (0 Bft)
_ Max-Zeit 16:10 16:10 06:30 00:10 23:55 12:40 - - 10:25 13:00
Maximum _ 32,4 C 37,5 C 82 % 1014,8 hPa 0,0 mm 8,3 km/h
N-NO (2 Bft)
- - 17,2 C 21,8 km/h
SW (4 Bft)
Durchschnitt _ 22,5 C 25,2 C 55 % 1011,3 hPa #0,0 mm 1,8 km/h (1 Bft) NO - 12,1 C 2,6 km/h (1 Bft)